Simultaneous Nadir Overpasses (SNOs) Predictions

Prediction of SNOs between GOES-15 and TERRA Satellite Orbit:

Table of predicted SNOs for the next 14.0 days since TLE Epoch: 8/20/2016
Index Date Time (GOES-15) GOES-15 Lat,Lon TERRA Lat,Lon Distance(km) Time Diff (sec)
1 08/20/2016 19:28:20 -0.22,-134.99 -0.39,-134.18 92.74 80
2 08/21/2016 07:47:03 0.25,-134.98 -0.69,-139.37 499.79 80
3 08/22/2016 19:16:07 -0.22,-135.06 -1.01,-131.21 437.50 80
4 08/23/2016 07:34:50 0.24,-135.05 -0.07,-136.41 155.34 80
5 08/25/2016 07:25:18 0.24,-135.11 0.62,-133.46 188.53 80
6 08/25/2016 19:43:53 -0.26,-135.15 0.50,-138.61 393.26 80
7 08/27/2016 19:31:40 -0.25,-135.21 -0.14,-135.65 50.04 80
8 08/29/2016 19:22:07 -0.25,-135.26 -0.78,-132.68 292.81 80
9 08/30/2016 07:40:51
